Weather Roundup
Issued by NWS

Home | Current Version | Previous Version | Graphics & Text | Print | Product List | Glossary Off
Versions: 1 2 3 4 5 6 7 8 9 10 11 12 13 14 15 16 17 18 19 20 21 22 23 24 25 26 27 28 29 30 31 32 33 34 35 36 37 38 39 40 41 42 43 44 45 46 47 48 49 50

000
NZUS93 KARX 271959
HRRWXR

CURRENT HOURLY OBSERVATIONS ACROSS
MUCH OF THE UPPER MISSISSIPPI VALLEY
NATIONAL WEATHER SERVICE LA CROSSE WI
200 PM CST FRI FEB 27 2015


...SOUTHEAST MINNESOTA...


CITY           SKY/WX    TMP DP  RH WIND       PRES   REMARKS
ROCHESTER      SUNNY      7  -2  66 W8        30.52F WCI  -6
ROCHESTER/MAYO FAIR      11   0  60 W6        30.53S WCI   1
WINONA         SUNNY     14   0  52 SW8       30.58F WCI   3
AUSTIN         SUNNY      9  -2  61 S7        30.53S WCI  -3
ALBERT LEA     SUNNY      9   0  66 SW5       30.53S WCI   0
DODGE CENTER   SUNNY      7   0  72 W9        30.50F WCI  -7
PRESTON        SUNNY      6  -5  60 W7        30.53F WCI  -6
OWATONNA       SUNNY      9  -2  61 SW8       30.52F WCI  -4
FARIBAULT      SUNNY     10  -2  56 SW6       30.53F WCI   1
$$

...ELSEWHERE IN MINNESOTA...


CITY           SKY/WX    TMP DP  RH WIND       PRES   REMARKS
MINNEAPOLIS    SUNNY     14  -2  49 SW9       30.53F WCI   2
INTNL FALLS    SUNNY     18  -9  29 W13G20    30.32F WCI   5
DULUTH         SUNNY     16  -4  41 W14G21    30.36F WCI   2
RED WING       SUNNY     14  -2  48 W7        30.54F WCI   4
REDWOOD FALLS  SUNNY     12   0  58 W8        30.51F WCI   0
MANKATO        SUNNY     10  -6  48 W8        30.53F WCI  -1
FAIRMONT       SUNNY     12   0  57 W6        30.52S WCI   3
$$

...SOUTHWEST WISCONSIN...


CITY           SKY/WX    TMP DP  RH WIND       PRES   REMARKS
LA CROSSE      SUNNY     15  -5  40 W7        30.57F WCI   5
PRAIRIE DU CHI SUNNY     11  -6  46 W8        30.60F WCI  -1
BOSCOBEL       SUNNY     15  -5  40 SW7       30.58F WCI   5
LONE ROCK      NOT AVBL
PLATTEVILLE    SUNNY     11  -4  51 SW9       30.56F WCI  -2
FORT MC COY    SUNNY     14  -5  42 W9G17     30.55F WCI   2
VIROQUA        FAIR      12  -4  49 SW7       30.51F WCI   1
WIS DELLS      NOT AVBL
$$

...ELSEWHERE IN WISCONSIN...


CITY           SKY/WX    TMP DP  RH WIND       PRES   REMARKS
MILWAUKEE      SUNNY     17  -7  34 W10       30.55F WCI   5
MADISON        SUNNY     14  -5  42 SW7       30.54F WCI   4
GREEN BAY      SUNNY     17   0  47 W12       30.49F WCI   4
EAU CLAIRE     NOT AVBL
BLACK RVR FLS  FAIR      14  -7  38 W8        30.53F WCI   3
MEDFORD        SUNNY      8  -5  53 SW9       30.43S WCI  -5
WAUSAU         SUNNY     11  -5  48 W14       30.44F WCI  -5
WIS RAPIDS     SUNNY     15  -7  37 W8G17     30.50F WCI   4
MARSHFIELD     SUNNY     13  -5  44 W8        30.46F WCI   2
RICE LAKE      SUNNY     11  -5  47 W8        30.50F WCI   0
$$

...NORTHEAST IOWA...


CITY           SKY/WX    TMP DP  RH WIND       PRES   REMARKS
DECORAH        SUNNY      7  -8  51 SW7       30.55S WCI  -5
MASON CITY     SUNNY      6  -2  69 W9        30.56F WCI  -8
CHARLES CITY   SUNNY      5  -4  66 SW6       30.57F WCI  -6
OELWEIN        SUNNY      5  -6  61 SW6       30.59S WCI  -6
$$

...ELSEWHERE IN IOWA...


CITY           SKY/WX    TMP DP  RH WIND       PRES   REMARKS
DES MOINES     MOSUNNY   12  -2  53 W5        30.60F WCI   4
IOWA CITY      SUNNY      7  -3  64 W7        30.65F WCI  -5
FORT DODGE     SUNNY      9   0  66 SW6       30.57F WCI  -1
$$

...NORTHERN ILLINOIS...


CITY           SKY/WX    TMP DP  RH WIND       PRES   REMARKS
CHICAGO-OHARE  SUNNY     13  -4  46 W10       30.58F WCI   0
CHICAGO-MIDWAY SUNNY     16  -3  43 W8        30.60F WCI   5
MOLINE         SUNNY     13  -5  44 W3        30.62F
ROCKFORD       SUNNY     12  -5  46 W6        30.61S WCI   3
PEORIA         SUNNY     16  -2  45 W6        30.63F WCI   7
$$

NOTE: "FAIR" INDICATES FEW OR NO CLOUDS BELOW 12,000 FEET WITH NO
SIGNIFICANT WEATHER AND/OR OBSTRUCTIONS TO VISIBILITY. WIND
SPEEDS ARE IN MILES-PER-HOUR.



USA.gov is the U.S. government's official web portal to all federal, state and local government web resources and services.